Location: D�rnast
(49.6426°N, 11.9755°E)
Time: 23:26:30
(UTC+00:00)

ISS - Pass Details

Date: 01 December 2021
Orbit: 413 x 422 km, 51.6° (Epoch: 25 January)

Event Time Altitude Azimuth Distance (km) Brightness Sun altitude
Rises 17:32:39 0° 287° (WNW) 2,387 1.2 -21.5°
Reaches altitude 10° 17:34:45 10° 287° (WNW) 1,518 0.0 -21.8°
Enters shadow 17:37:34 58° 284° (WNW) 501 -3.2 -22.3°
